Location: Consuma
(43.7833°N, 11.5833°E)
Time: 10:26:48
(UTC+00:00)

CZ-4B DEB - Pass Details

Date: 17 February 2020
Orbit: 840 x 862 km, 99.1° (Epoch: 04 April)

Event Time Altitude Azimuth Distance (km) Brightness Sun altitude
Rises 04:55:20 0° 12° (NNE) 3,424 7.5 -14.2°
Reaches altitude 10° 04:57:43 10° 11° (N) 2,481 6.7 -13.8°
Maximum altitude 05:03:12 75° 288° (WNW) 877 4.1 -12.8°
Drops below altitude 10° 05:08:38 10° 203° (SSW) 2,453 6.4 -11.8°
Sets 05:10:59 0° 202° (SSW) 3,382 7.2 -11.4°
